Location: Carrières
(48.9495°N, 2.0407°E)
Time: 23:40:48
(UTC+00:00)

Cosmos 2278 - Pass Details

Date: 28 January 2023
Orbit: 838 x 853 km, 71.1° (Epoch: 21 March)

Event Time Altitude Azimuth Distance (km) Brightness Sun altitude
Rises 19:22:58 0° 222° (SW) 3,388 7.4 -26.3°
Reaches altitude 10° 19:25:28 10° 227° (SW) 2,459 6.6 -26.7°
Maximum altitude 19:30:59 53° 304° (NW) 1,033 4.3 -27.6°
Enters shadow 19:33:36 30° 6° (N) 1,483 4.9 -28.0°
